This demonstration page uses our WeatherBlox Daily Observations layout. Learn more.

Left ArrowRight Arrow

Hourly Observations for July 2, 2021

Temp ( °F °C ) Dew Point ( °F °C ) Humidity (%) Winds ( mph kmh ) Pressure ( in mb ) Visibility ( mi km ) Precip ( " mm )
12:53 am 00:53 Clear 81 27.2 45 7.2 28 28 E 8 13 29.70 1006 10 16 0.00 0.00
1:53 am 01:53 Clear 73 22.8 46 7.8 38 38 SW 12 19 29.72 1006 10 16 0.00 0.00
2:53 am 02:53 Clear 75 23.9 46 7.8 36 36 SSW 13 20 29.71 1006 10 16 0.00 0.00
3:53 am 03:53 Clear 69 20.6 46 7.8 44 44 SW 10 17 29.73 1007 10 16 0.00 0.00
4:53 am 04:53 Clear 67 19.4 47 8.3 49 49 SW 6 9 29.75 1008 10 16 0.00 0.00
5:53 am 05:53 Sunny 69 20.6 47 8.3 45 45 SW 10 17 29.76 1008 10 16 0.00 0.00
6:53 am 06:53 Sunny 74 23.3 48 8.9 40 40 WSW 8 13 29.77 1008 10 16 0.00 0.00
7:53 am 07:53 Sunny 81 27.2 48 8.9 32 32 SW 15 24 29.77 1008 10 16 0.00 0.00
8:53 am 08:53 Sunny 83 28.3 48 8.9 30 30 SW 17 28 29.78 1008 10 16 0.00 0.00
9:53 am 09:53 Sunny 87 30.6 49 9.4 27 27 SW 12 19 29.86 1011 10 16 0.00 0.00
10:53 am 10:53 Sunny 92 33.3 49 9.4 23 23 SSW 8 13 29.76 1008 10 16 0.00 0.00
11:53 am 11:53 Sunny 94 34.4 46 7.8 19 19 S 13 20 29.74 1007 10 16 0.00 0.00
12:53 pm 12:53 Sunny 96 35.6 45 7.2 17 17 S 10 17 29.74 1007 10 16 0.00 0.00
1:53 pm 13:53 Sunny 99 37.2 46 7.8 16 16 SSW 7 11 29.82 1010 10 16 0.00 0.00
2:53 pm 14:53 Sunny 100 37.8 44 6.7 15 15 SW 12 19 29.71 1006 10 16 0.00 0.00
3:53 pm 15:53 Sunny 100 37.8 43 6.1 14 14 W 9 15 29.70 1006 10 16 0.00 0.00
4:53 pm 16:53 Sunny 101 38.3 43 6.1 14 14 SSW 5 7 29.69 1005 10 16 0.00 0.00
5:53 pm 17:53 Partly Cloudy 99 37.2 45 7.2 16 16 undefined N/A 29.68 1005 10 16 0.00 0.00
6:53 pm 18:53 Sunny 99 37.2 43 6.1 15 15 W 7 11 29.66 1004 10 16 0.00 0.00
7:53 pm 19:53 Sunny 98 36.7 44 6.7 16 16 W 7 11 29.65 1004 10 16 0.00 0.00
8:53 pm 20:53 Sunny 90 32.2 50 10 25 25 WSW 6 9 29.66 1004 9 14 0.00 0.00
9:53 pm 21:53 Clear 79 26.1 50 10 36 36 WSW 8 13 29.68 1005 10 16 0.00 0.00
10:53 pm 22:53 Clear 76 24.4 47 8.3 36 36 SW 8 13 29.70 1006 10 16 0.00 0.00
11:53 pm 23:53 Clear 74 23.3 48 8.9 40 40 SW 5 7 29.71 1006 10 16 0.00 0.00

Powered by AerisWeather